Weather History for K4A6 - August, 2014

Change the Weather History Date:

Friday, August 22, 2014

  Actual Average (KHSV) Record (KHSV)
Temperature  
Mean Temperature 81 °F 80 °F  
Max Temperature 91 °F 91 °F 102 °F (1983)
Min Temperature 71 °F 69 °F 54 °F (1956)
Degree Days  
Heating Degree Days 0 0  
Month to date heating degree days 0  
Since 1 June heating degree days 1  
Since 1 July heating degree days 0  
Cooling Degree Days 16 15  
Month to date cooling degree days 344  
Year to date cooling degree days 1469  
Since 1 June cooling degree days 1206  
Growing Degree Days 31 (Base 50)    
Moisture  
Dew Point 73 °F    
Average Humidity 82    
Maximum Humidity 100    
Minimum Humidity 49    
Precipitation  
Precipitation 0.00 in 0.12 in 1.16 in (1900)
Month to date precipitation 2.64  
Year to date precipitation 35.35  
Snow  
Snow 0.00 in - - ()
Month to date snowfall  
Since 1 June snowfall  
Since 1 July snowfall  
Snow Depth -    
Sea Level Pressure  
Sea Level Pressure 30.08 in    
Wind  
Wind Speed 1 mph (WNW)    
Max Wind Speed 7 mph    
Max Gust Speed -    
Visibility 8 miles    
Events Fog    
T = Trace of Precipitation, MM = Missing Value Source: NWS Daily Summary

Daily Weather History Graph

Daily Weather History Graph

Search for Another Location

Airport or City:

Trip Planner

Search our weather history database for the weather conditions in past years. The results will help you decide how hot, cold, wet, or windy it might be!

Date:

Astronomy

Aug. 22, 2014 Rise Set
Actual Time 6:09 AM CDT 7:23 PM CDT
Civil Twilight 5:43 AM CDT 7:49 PM CDT
Nautical Twilight 5:12 AM CDT 8:20 PM CDT
Astronomical Twilight 4:39 AM CDT 8:53 PM CDT
Moon 3:34 AM CDT (8/22) 5:29 PM CDT (8/22)
Length of Visible Light 14h 06m
Length of Day
13h 13m
Waning Crescent, 7% of the Moon is Illuminated
Aug 22
Waning Crescent
Aug 25
New
Sep 2
First Quarter
Sep 8
Full
Sep 15
Last Quarter

Hourly Weather History & Observations

Time (CDT) Temp. Heat Index Dew Point Humidity Pressure Visibility Wind Dir Wind Speed Gust Speed Precip Events Conditions
12:15 AM 73.4 °F - 73.4 °F 100% 30.12 in 9.0 mi Calm Calm - N/A   Partly Cloudy
12:35 AM 73.4 °F - 73.4 °F 100% 30.12 in 10.0 mi Calm Calm - N/A   Clear
1:35 AM 73.4 °F - 73.4 °F 100% 30.10 in 8.0 mi Calm Calm - N/A   Mostly Cloudy
1:55 AM 73.4 °F - 73.4 °F 100% 30.10 in 9.0 mi Calm Calm - N/A   Partly Cloudy
2:15 AM 73.4 °F - 73.4 °F 100% 30.10 in 9.0 mi Calm Calm - N/A   Scattered Clouds
2:35 AM 73.4 °F - 73.4 °F 100% 30.09 in 9.0 mi Calm Calm - N/A   Overcast
2:55 AM 73.4 °F - 73.4 °F 100% 30.09 in 8.0 mi Calm Calm - N/A   Scattered Clouds
3:15 AM 71.6 °F - 71.6 °F 100% 30.09 in 8.0 mi NE 3.5 mph - N/A   Clear
3:35 AM 73.4 °F - 73.4 °F 100% 30.08 in 7.0 mi Calm Calm - N/A   Scattered Clouds
3:55 AM 71.6 °F - 71.6 °F 100% 30.08 in 7.0 mi Calm Calm - N/A   Scattered Clouds
4:15 AM 71.6 °F - 71.6 °F 100% 30.08 in 1.0 mi Calm Calm - N/A   Overcast
4:35 AM 71.6 °F - 71.6 °F 100% 30.08 in 0.2 mi Calm Calm - N/A Fog Fog
4:55 AM 71.6 °F - 71.6 °F 100% 30.08 in 0.2 mi Calm Calm - N/A Fog Fog
5:15 AM 71.6 °F - 71.6 °F 100% 30.09 in 0.5 mi Calm Calm - N/A Fog Fog
5:35 AM 71.6 °F - 71.6 °F 100% 30.10 in 0.8 mi Calm Calm - N/A   Mist
5:55 AM 71.6 °F - 71.6 °F 100% 30.10 in 0.2 mi Calm Calm - N/A Fog Fog
6:15 AM 71.6 °F - 71.6 °F 100% 30.11 in 0.2 mi Calm Calm - N/A Fog Fog
6:35 AM 71.6 °F - 71.6 °F 100% 30.12 in 0.2 mi Calm Calm - N/A Fog Fog
6:55 AM 71.6 °F - 71.6 °F 100% 30.13 in 0.2 mi Calm Calm - N/A Fog Fog
7:15 AM 71.6 °F - 71.6 °F 100% 30.14 in 1.2 mi Calm Calm - N/A   Overcast
7:35 AM 71.6 °F - 71.6 °F 100% 30.14 in 0.5 mi Calm Calm - N/A Fog Fog
7:55 AM 73.4 °F - 73.4 °F 100% 30.14 in 3.0 mi Calm Calm - N/A   Overcast
8:15 AM 73.4 °F - 73.4 °F 100% 30.15 in 4.0 mi Calm Calm - N/A   Overcast
8:35 AM 73.4 °F - 73.4 °F 100% 30.15 in 4.0 mi Calm Calm - N/A   Overcast
8:55 AM 75.2 °F - 75.2 °F 100% 30.15 in 6.0 mi Calm Calm - N/A   Overcast
9:15 AM 77.0 °F - 75.2 °F 94% 30.15 in 7.0 mi Calm Calm - N/A   Scattered Clouds
9:35 AM 78.8 °F - 75.2 °F 89% 30.15 in 10.0 mi Calm Calm - N/A   Clear
9:55 AM 80.6 °F 86.2 °F 75.2 °F 84% 30.14 in 10.0 mi Calm Calm - N/A   Clear
10:15 AM 84.2 °F 92.3 °F 75.2 °F 74% 30.14 in 10.0 mi Calm Calm - N/A   Clear
10:35 AM 84.2 °F 92.3 °F 75.2 °F 74% 30.14 in 10.0 mi East 4.6 mph - N/A   Clear
10:55 AM 86.0 °F 95.1 °F 75.2 °F 70% 30.13 in 10.0 mi WSW 4.6 mph - N/A   Clear
11:15 AM 87.8 °F 97.6 °F 75.2 °F 66% 30.13 in 9.0 mi Calm Calm - N/A   Partly Cloudy
11:35 AM 87.8 °F 97.6 °F 75.2 °F 66% 30.12 in 9.0 mi West 5.8 mph - N/A   Scattered Clouds
11:55 AM 89.6 °F 98.2 °F 73.4 °F 59% 30.11 in 10.0 mi WNW 4.6 mph - N/A   Partly Cloudy
12:15 PM 89.6 °F 98.2 °F 73.4 °F 59% 30.11 in 10.0 mi NW 3.5 mph - N/A   Scattered Clouds
12:35 PM 89.6 °F 98.2 °F 73.4 °F 59% 30.10 in 10.0 mi NW 3.5 mph - N/A   Scattered Clouds
12:55 PM 87.8 °F 95.6 °F 73.4 °F 62% 30.09 in 10.0 mi NW 4.6 mph - N/A   Mostly Cloudy
1:15 PM 89.6 °F 98.2 °F 73.4 °F 59% 30.09 in 10.0 mi WNW 4.6 mph - N/A   Partly Cloudy
1:35 PM 91.4 °F 98.4 °F 71.6 °F 52% 30.08 in 10.0 mi West 5.8 mph - N/A   Partly Cloudy
1:55 PM 89.6 °F 98.2 °F 73.4 °F 59% 30.08 in 10.0 mi NNW 4.6 mph - N/A   Mostly Cloudy
2:15 PM 91.4 °F 98.4 °F 71.6 °F 52% 30.07 in 10.0 mi West 6.9 mph - N/A   Scattered Clouds
2:35 PM 91.4 °F 100.1 °F 73.4 °F 55% 30.06 in 9.0 mi NNW 4.6 mph - N/A   Partly Cloudy
2:55 PM 91.4 °F 100.1 °F 73.4 °F 55% 30.05 in 10.0 mi WNW 6.9 mph - N/A   Clear
3:15 PM 91.4 °F 98.4 °F 71.6 °F 52% 30.05 in 10.0 mi WNW 5.8 mph - N/A   Clear
3:35 PM 91.4 °F 96.8 °F 69.8 °F 49% 30.04 in 10.0 mi WNW 5.8 mph - N/A   Clear
3:55 PM 91.4 °F 98.4 °F 71.6 °F 52% 30.04 in 10.0 mi NNW 4.6 mph - N/A   Clear
4:15 PM 91.4 °F 98.4 °F 71.6 °F 52% 30.04 in 10.0 mi WNW 4.6 mph - N/A   Clear
4:35 PM 89.6 °F 98.2 °F 73.4 °F 59% 30.03 in 10.0 mi NW 3.5 mph - N/A   Mostly Cloudy
4:55 PM 91.4 °F 100.1 °F 73.4 °F 55% 30.02 in 10.0 mi West 5.8 mph - N/A   Partly Cloudy
5:15 PM 91.4 °F 98.4 °F 71.6 °F 52% 30.02 in 10.0 mi West 5.8 mph - N/A   Clear
5:35 PM 91.4 °F 98.4 °F 71.6 °F 52% 30.02 in 10.0 mi WSW 5.8 mph - N/A   Clear
5:55 PM 91.4 °F 100.1 °F 73.4 °F 55% 30.02 in 10.0 mi West 5.8 mph - N/A   Clear
6:15 PM 89.6 °F 99.8 °F 75.2 °F 62% 30.01 in 10.0 mi West 3.5 mph - N/A   Clear
6:35 PM 87.8 °F 97.6 °F 75.2 °F 66% 30.01 in 10.0 mi Calm Calm - N/A   Clear
6:55 PM 86.0 °F 96.9 °F 77.0 °F 74% 30.01 in 10.0 mi Calm Calm - N/A   Clear
7:15 PM 84.2 °F 92.3 °F 75.2 °F 74% 30.01 in 10.0 mi Calm Calm - N/A   Clear
7:35 PM 82.4 °F 90.9 °F 77.0 °F 84% 30.01 in 10.0 mi Calm Calm - N/A   Clear
7:55 PM 80.6 °F 87.1 °F 77.0 °F 89% 30.01 in 10.0 mi Calm Calm - N/A   Clear
8:15 PM 78.8 °F - 75.2 °F 89% 30.01 in 10.0 mi Calm Calm - N/A   Clear
8:55 PM 77.0 °F - 75.2 °F 94% 30.03 in 10.0 mi Calm Calm - N/A   Clear
9:15 PM 77.0 °F - 73.4 °F 89% 30.03 in 10.0 mi Calm Calm - N/A   Clear
9:35 PM 77.0 °F - 73.4 °F 89% 30.04 in 10.0 mi Calm Calm - N/A   Clear
9:55 PM 75.2 °F - 73.4 °F 94% 30.04 in 9.0 mi Calm Calm - N/A   Clear
10:15 PM 75.2 °F - 73.4 °F 94% 30.05 in 10.0 mi Calm Calm - N/A   Clear
10:35 PM 75.2 °F - 75.2 °F 100% 30.05 in 10.0 mi Calm Calm - N/A   Clear
10:55 PM 75.2 °F - 75.2 °F 100% 30.05 in 10.0 mi Calm Calm - N/A   Clear
11:15 PM 75.2 °F - 73.4 °F 94% 30.04 in 10.0 mi SW 3.5 mph - N/A   Unknown
11:35 PM 75.2 °F - 73.4 °F 94% 30.04 in 10.0 mi Calm Calm - N/A   Clear